Showing default

CAPELLA-14 (ACADIA), 59444

Orbit data source: Space-Track

CAPELLA-14 (ACADIA), 59444 is a payload satellite owned by Capella Space (US) in LEO that was launched on Sun, 07 Apr 2024 UTC via an FALCON 9 launch vehicle from the Air Force Eastern Test Range (AFETR). Payload-class satellites include a variety of spacecraft equipped with specific instruments for various scientific and technological missions. These include communications satellites like Starlink; space stations such as the ISS; scientific satellites like the Hubble; Earth observation satellites from companies like Planet Labs, Umbra, and HawkEye 360; GPS; miniature CubeSats for education and research; and military/defense satellites.

Loading next visibility...
Identifier
59444, 2024-066C
Orbit
LEO
Last TLE update
18 hours ago
Origin
Manufacturer
Capella Space
Mission
Operational spacecraft
Bus & Motor
ACADIA, Unknown motor
Mass
180 kg wet, ~150 kg dry
Launch date (UTC)
2024-04-07 (1 year ago)
Launch vehicle
FALCON 9
Launch site
Air Force Eastern Test Range (AFETR)
Object type
Payload
Rocket body
Debris
Shape & HBR
Unknown
Radar Cross Section
Large (>1 m²)

Expand to show TLE details & history

TLE from 18 hours ago
0 CAPELLA-14 (ACADIA)
1 59444U 24066C   25128.66384601  .00012359  00000-0  10058-2 0  9992
2 59444  45.6066 209.1990 0007616 313.9559  46.0694 14.99614475 51498
Epoch: 2025-05-08T15:55Z
Definitive object data (Epoch: 2025-05-08T15:55:56.295Z)
Latitude
0.00002°
Longitude
103.48335°
Altitude
564.484 km
Speed
7.583 km/s
True Right ascension
13h 56m 47s
True Declination
0° 00' 00"
Sunlit
Object was in full shadow at TLE epoch
Visualization TLE readout
Latitude
29.38485°
Longitude
132.90082°
Altitude
568.368 km
Speed
7.581 km/s
Apparent Right ascension
12h 21m 05s
Apparent Declination
-12° 48' 04"
Sunlit
Object is in full shadow
Visualization observer readout
Local Sidereal Time
17:52:00
Azimuth
255.557° W
Elevation
-2.724°
Doppler factor
1
Orbital elements
Apogee altitude
574.867 km
Perigee altitude
564.284 km
Semi-major axis
6,947.712 km
Eccentricity
0.0007616
Inclination
45.6066°
RAAN
209.199°
Arg. of periapsis
313.9559°
True anomaly
46.13229°
Mean anomaly
46.0694°
Eccentric anomaly
46.10084°
Mean motion
3.74783 °/min
BSTAR
0.0010058
Orbital period
96.06 mins
Loading maneuver chart data...
Loading SW <> Apogee altitude chart data...
Loading historical data...
Loading historical data...
Loading historical data...
Loading historical data...
Loading historical data...
Loading historical data...
Loading historical data...

CAPELLA-14 (ACADIA) Visibility forecast

Observer location: undefined°, undefined°

Span
Click to sort rows by Start time (UTC) header in descending order
Start Az.
Max El. time (UTC)
Max El. Az.
Max El.
End time (UTC)
End Az.
7 mins2025-05-09 09:46:38.307Z263.14° W2025-05-09 09:49:38.307Z318.114° NNW40.213°2025-05-09 09:53:38.307Z60.403° ENE
6 mins2025-05-09 11:28:38.307Z302.9° NW2025-05-09 11:30:38.307Z344.492° N30.665°2025-05-09 11:34:38.307Z66.692° ENE
6 mins2025-05-09 13:09:38.307Z304.307° NW2025-05-09 13:12:38.307Z49.436° ENE40.044°2025-05-09 13:15:38.307Z97.995° ESE
6 mins2025-05-09 14:50:38.307Z267.054° W2025-05-09 14:52:38.307Z220.02° SW30.185°2025-05-09 14:56:38.307Z149.798° SSE
6 mins2025-05-10 08:06:38.307Z218.567° SW2025-05-10 08:09:38.307Z132.313° SE38.261°2025-05-10 08:12:38.307Z74.658° E
|